MOLNIYA 1-75 (19807 NORAD) Tracking and Keplerian Element Data

This shows tracking and keplerian element data for the satellite.

Feedback or suggestion? Click here.




ElementValue
Catalog19807
NameMOLNIYA 1-75
Epoch Orbit26315
Epoch Day27.79257327
Epoch Year2025
RAAN189.118
Inclination63.8138
Eccentricity0.6622398
Argument of Perigee259.7663
Mean Anonmoly25.0102
Mean Motion2.00475828
Decay Rate-4.41E-06
L11 19807U 89014A 25027.79257327 -.00000441 00000+0 00000+0 0 9993
L22 19807 63.8138 189.1180 6622398 259.7663 25.0102 2.00475828263151



Live tracking and technical data element details for MOLNIYA 1-75 (NORAD 19807). MOLNIYA 1-75 can be tracked NOW for your location showing map with azimuth and elevation plus other details from your city location.







IsCatalogInMostPopularTable: catalog: 19807, numindb: 291
Update: records affected: 1



GetName: 19807 MOLNIYA 1-75

Hit Count: updated at: Thu, 22 May 2025 02:48:39 GMT